Location: Bright Sky Observatory
(40.7821°N, 74.2425°W)
Time: 20:32:27
(UTC-05:00)

Amateur Radio Satellites - All Passes

Search period start: 18 December 2014 20:02
Search period end: 19 December 2014 20:02
Location: Bright Sky Observatory, 40.7821°N, 74.2425°W

Satellite Date Start Highest point End Downlink Frequencies (MHz)
Time Altitude Azimuth
SEEDS 18 Dec 20:03:47 20:07:59 69° 75° (ENE) 20:12:15 437.485
CUTE 1.7 + AOD 2 18 Dec 20:04:12 20:08:27 82° 76° (ENE) 20:12:45 437.475
SO-50 18 Dec 20:04:35 20:06:10 12° 107° (ESE) 20:07:46 436.795
DX 1 18 Dec 20:07:23 20:10:50 24° 67° (ENE) 20:14:17 434.975-435.025
STRAND 1 18 Dec 20:16:51 20:20:24 19° 297° (WNW) 20:23:57 437.568
BRITE-PL 18 Dec 20:22:21 20:26:30 57° 260° (W) 20:30:36 437.365/2234.400
ISS 18 Dec 20:27:27 20:30:43 64° 34° (NE) 20:33:57 145.825
DELFI C3 18 Dec 20:31:36 20:35:28 42° 72° (ENE) 20:39:23 145.870
Oscar 11 18 Dec 20:32:54 20:37:06 54° 73° (ENE) 20:41:22 145.826/435.025
50 SAT 18 Dec 20:36:58 20:38:27 12° 63° (ENE) 20:39:56 437.505
CUBEBUG 2 18 Dec 20:37:46 20:41:35 36° 71° (ENE) 20:45:29 437.445
CINEMA 3 18 Dec 20:39:35 20:43:40 63° 75° (ENE) 20:47:51 145.822/145.860
UKube-1 18 Dec 20:40:00 20:44:11 51° 72° (ENE) 20:48:24 .
HUMSAT D 18 Dec 20:40:43 20:43:23 17° 65° (ENE) 20:46:05 437.325/437.525
CUSAT 1 18 Dec 20:41:06 20:48:42 90° 82° (E) 20:57:16 437.405
VELOX 1 18 Dec 20:52:35 20:56:07 24° 67° (ENE) 20:59:39 145.980
RS-15 18 Dec 20:53:03 21:04:23 79° 56° (ENE) 21:16:13 29.354- 29.394
ZACube-1 18 Dec 20:57:47 21:01:44 44° 72° (ENE) 21:05:46 437.345
GOMX 1 18 Dec 21:00:42 21:04:22 30° 264° (W) 21:08:03 467.674
AAUSAT CUBESAT 2 18 Dec 21:03:41 21:07:29 33° 263° (W) 21:11:19 437.432
BEESAT 3 18 Dec 21:05:40 21:07:55 14° 41° (NE) 21:10:09 437.485
CANX-2 18 Dec 21:10:37 21:13:27 17° 268° (W) 21:16:19 2200.000
UWE-3 18 Dec 21:20:10 21:24:19 85° 257° (WSW) 21:28:35 435.000/436.395/437.385
DANDE 18 Dec 21:22:21 21:29:40 58° 266° (W) 21:38:04 436.750
FUNcube-1 18 Dec 21:24:58 21:29:07 90° 256° (WSW) 21:33:23 145.935
AISAT 18 Dec 21:33:29 21:37:52 67° 74° (ENE) 21:42:16 437.250
DOVE 4 18 Dec 21:37:17 21:39:59 17° 267° (W) 21:42:42 437.250
PCSat 18 Dec 21:37:56 21:41:15 16° 42° (NE) 21:44:32 145.827
COMPASS 1 18 Dec 21:39:47 21:41:35 12° 270° (W) 21:43:23 437.405
SO-50 18 Dec 21:41:30 21:46:01 74° 304° (WNW) 21:50:42 436.795
ANTELSAT 18 Dec 21:41:37 21:45:03 20° 93° (E) 21:48:28 437.575/2403.000
BEESAT 2 18 Dec 21:42:40 21:46:12 25° 48° (NE) 21:49:41 435.950
DX 1 18 Dec 21:43:04 21:46:55 31° 263° (W) 21:50:47 434.975-435.025
HO-68 18 Dec 21:44:39 21:49:09 18° 270° (W) 21:53:41 435.675
CUBEBUG 1 18 Dec 21:47:53 21:51:49 34° 70° (ENE) 21:55:45 437.445
QB50P2 18 Dec 21:49:47 21:51:58 14° 92° (E) 21:54:09 145.880/145.840
POLYITAN 1 18 Dec 21:57:18 22:00:06 17° 93° (E) 22:02:54 437.675
NANOSAT C BR1 18 Dec 22:01:20 22:04:18 18° 93° (E) 22:07:16 145.865
ISS 18 Dec 22:05:10 22:06:56 14° 230° (SW) 22:08:41 145.825
DELFI C3 18 Dec 22:08:32 22:10:56 15° 268° (W) 22:13:22 145.870
50 SAT 18 Dec 22:09:14 22:13:10 57° 260° (W) 22:17:10 437.505
Oscar 11 18 Dec 22:11:34 22:13:36 13° 269° (W) 22:15:39 145.826/435.025
QB50P1 18 Dec 22:14:52 22:18:27 26° 96° (E) 22:22:01 145.935-145.965
HUMSAT D 18 Dec 22:15:00 22:18:52 40° 262° (W) 22:22:48 437.325/437.525
CUBEBUG 2 18 Dec 22:15:37 22:18:27 18° 268° (W) 22:21:20 437.445
TIGRISAT 18 Dec 22:17:43 22:22:13 45° 99° (E) 22:26:44 435.000
UKube-1 18 Dec 22:18:22 22:20:38 14° 268° (W) 22:22:54 .
ESTCUBE 1 18 Dec 22:22:33 22:27:06 87° 76° (ENE) 22:31:40 437.505/2401.250
CUSAT 1 18 Dec 22:26:00 22:31:06 19° 276° (W) 22:36:31 437.405
VELOX 1 18 Dec 22:28:36 22:32:32 31° 263° (W) 22:36:29 145.980
ZACube-1 18 Dec 22:35:59 22:38:22 15° 269° (W) 22:40:46 437.345
AIST 2 18 Dec 22:37:08 22:41:13 41° 52° (NE) 22:45:14 435.215
BEESAT 3 18 Dec 22:42:26 22:46:37 76° 240° (WSW) 22:50:44 437.485
POPSAT HIP 1 18 Dec 22:42:49 22:47:00 54° 100° (E) 22:51:11 437.405
UNISAT 6 18 Dec 22:45:36 22:50:19 89° 283° (WNW) 22:55:03 437.425
SPROUT 18 Dec 23:04:05 23:08:14 52° 73° (ENE) 23:12:24 437.525
RS-15 18 Dec 23:06:38 23:15:40 29° 256° (WSW) 23:25:03 29.354- 29.394
TISAT 1 18 Dec 23:07:37 23:11:47 63° 74° (ENE) 23:15:57 437.305
DUCHIFAT 1 18 Dec 23:11:55 23:16:09 71° 285° (WNW) 23:20:23 145.980
AISAT 18 Dec 23:13:48 23:14:55 11° 270° (W) 23:16:03 437.250
ANTELSAT 18 Dec 23:17:33 23:21:59 42° 289° (WNW) 23:26:26 437.575/2403.000
PCSat 18 Dec 23:19:59 23:25:27 89° 60° (ENE) 23:30:52 145.827
BEESAT 2 18 Dec 23:20:43 23:24:29 33° 245° (WSW) 23:28:12 435.950
BUGSAT 1 18 Dec 23:21:14 23:25:15 67° 285° (WNW) 23:29:17 437.445
BEESAT 18 Dec 23:23:23 23:26:18 16° 63° (ENE) 23:29:13 436.000
QB50P2 18 Dec 23:24:02 23:28:10 50° 287° (WNW) 23:32:17 145.880/145.840
CUBEBUG 1 18 Dec 23:24:55 23:28:15 21° 266° (W) 23:31:35 437.445
SO-50 18 Dec 23:25:20 23:27:25 13° 324° (NW) 23:29:32 436.795
POLYITAN 1 18 Dec 23:32:11 23:36:12 41° 288° (WNW) 23:40:14 437.675
YUBILEINY 18 Dec 23:36:07 23:44:39 60° 91° (E) 23:53:09 435.215
NANOSAT C BR1 18 Dec 23:36:23 23:40:18 37° 289° (WNW) 23:44:13 145.865
AUBIESAT-1 18 Dec 23:48:11 23:51:44 21° 59° (ENE) 23:55:18 437.475
QB50P1 18 Dec 23:50:42 23:54:16 26° 291° (WNW) 23:57:49 145.935-145.965
TIGRISAT 18 Dec 23:55:19 23:58:38 19° 295° (WNW) 00:01:57 435.000
M-CUBED/EXP-1 PRIME 19 Dec 00:11:13 00:15:36 36° 64° (ENE) 00:20:05 437.505
AIST 2 19 Dec 00:16:26 00:19:33 20° 249° (WSW) 00:22:38 435.215
POPSAT HIP 1 19 Dec 00:20:16 00:22:27 14° 296° (WNW) 00:24:39 437.405
UNISAT 6 19 Dec 00:25:43 00:26:22 10° 300° (WNW) 00:27:01 437.425
ITUPSAT 1 19 Dec 00:33:00 00:37:48 76° 75° (ENE) 00:42:37 437.325
SWISSCUBE 19 Dec 00:33:23 00:38:11 85° 75° (ENE) 00:43:00 437.505
SPROUT 19 Dec 00:42:35 00:44:37 13° 269° (W) 00:46:40 437.525
O/OREOS (USA 219) 19 Dec 00:42:45 00:47:07 60° 109° (ESE) 00:51:32 437.305
TISAT 1 19 Dec 00:47:15 00:48:00 10° 270° (W) 00:48:45 437.305
KKS-1 19 Dec 00:58:42 01:02:29 28° 68° (ENE) 01:06:18 437.445
BEESAT 19 Dec 00:58:57 01:03:40 58° 259° (W) 01:08:24 436.000
STARS 19 Dec 01:00:04 01:03:15 20° 66° (ENE) 01:06:27 437.465
Oscar 19 19 Dec 01:05:44 01:10:42 43° 99° (E) 01:15:37 437.125/150
PCSat 19 Dec 01:06:16 01:08:01 12° 258° (WSW) 01:09:47 145.827
ITAMSAT 1 19 Dec 01:17:50 01:21:39 20° 93° (E) 01:25:26 435.822/435.867
AUBIESAT-1 19 Dec 01:21:37 01:26:16 51° 256° (WSW) 01:31:03 437.475
YUBILEINY 19 Dec 01:34:34 01:41:56 30° 291° (WNW) 01:49:21 435.215
M-CUBED/EXP-1 PRIME 19 Dec 01:46:33 01:50:36 27° 261° (W) 01:54:46 437.505
ITUPSAT 1 19 Dec 02:14:57 02:16:13 11° 271° (W) 02:17:28 437.325
HORYU 2 19 Dec 02:20:34 02:23:38 18° 93° (E) 02:26:42 437.375
O/OREOS (USA 219) 19 Dec 02:24:27 02:26:57 15° 307° (NW) 02:29:27 437.305
KKS-1 19 Dec 02:35:24 02:39:05 26° 264° (W) 02:42:48 437.445
STARS 19 Dec 02:35:25 02:39:28 37° 262° (W) 02:43:34 437.465
Gurwin Techsat 1B 19 Dec 02:39:57 02:45:17 76° 103° (ESE) 02:50:34 435.225
Oscar 19 19 Dec 02:45:41 02:49:45 24° 295° (WNW) 02:53:48 437.125/150
VERMONT LUNAR 19 Dec 02:52:16 02:54:40 17° 149° (SSE) 02:57:03 437.305
ITAMSAT 1 19 Dec 02:56:25 03:01:21 47° 289° (WNW) 03:06:17 435.822/435.867
PHONESAT 2.4 19 Dec 02:57:39 02:59:25 13° 146° (SE) 03:01:11 2401.200-2431.200
MOZHAYETS 4 19 Dec 03:30:18 03:34:33 37° 70° (ENE) 03:38:49
GONETS M04 19 Dec 03:41:02 03:44:07 12° 73° (ENE) 03:47:11
AIST 1 19 Dec 03:45:23 03:49:41 86° 262° (W) 03:53:56
HORYU 2 19 Dec 03:56:12 04:00:29 43° 289° (WNW) 04:04:45 437.375
AO-7 19 Dec 03:57:05 04:05:19 56° 103° (ESE) 04:13:27 29.400- 29.500
Gurwin Techsat 1B 19 Dec 04:21:45 04:24:34 15° 300° (WNW) 04:27:24 435.225
VERMONT LUNAR 19 Dec 04:29:06 04:32:34 57° 164° (SSE) 04:36:03 437.305
SO-50 19 Dec 04:33:54 04:36:52 16° 39° (NE) 04:39:50 436.795
PHONESAT 2.4 19 Dec 04:34:05 04:37:35 47° 161° (SSE) 04:41:05 2401.200-2431.200
JAS-2 19 Dec 04:36:15 04:41:35 40° 97° (E) 04:46:30 435.910
CUBESAT XI-V 19 Dec 04:49:17 04:52:34 19° 65° (ENE) 04:55:50 437.345
PRISM 19 Dec 04:55:12 04:59:13 45° 72° (ENE) 05:03:16 437.425
MOZHAYETS 4 19 Dec 05:08:16 05:11:51 22° 266° (W) 05:15:28
GONETS M04 19 Dec 05:30:26 05:39:11 71° 93° (E) 05:47:58
Cubesat XI-IV 19 Dec 05:37:35 05:42:18 31° 96° (E) 05:46:58 437.490
AO-7 19 Dec 05:50:25 05:57:42 35° 301° (WNW) 06:04:59 29.400- 29.500
STRAND 1 19 Dec 05:52:14 05:57:20 74° 74° (ENE) 06:02:26 437.568
VERMONT LUNAR 19 Dec 06:07:19 06:10:52 88° 182° (S) 06:14:24 437.305
CUTE-I 19 Dec 06:11:00 06:16:17 63° 102° (ESE) 06:21:32 437.470
PHONESAT 2.4 19 Dec 06:12:33 06:16:11 88° 174° (S) 06:19:50 2401.200-2431.200
SO-50 19 Dec 06:13:11 06:18:06 90° 54° (NE) 06:23:01 436.795
JAS-2 19 Dec 06:21:48 06:26:27 26° 297° (WNW) 06:30:46 435.910
CUBESAT XI-V 19 Dec 06:25:12 06:29:40 44° 261° (W) 06:34:09 437.345
PRISM 19 Dec 06:32:30 06:34:58 15° 267° (W) 06:37:27 437.425
Cubesat XI-IV 19 Dec 07:17:38 07:22:20 33° 293° (WNW) 07:27:01 437.490
HO-68 19 Dec 07:23:58 07:27:38 15° 89° (E) 07:31:17 435.675
GONETS M04 19 Dec 07:29:47 07:36:47 26° 294° (WNW) 07:43:50
STRAND 1 19 Dec 07:34:55 07:37:02 12° 270° (W) 07:39:10 437.568
VERMONT LUNAR 19 Dec 07:45:41 07:49:07 49° 198° (SSW) 07:52:33 437.305
SEEDS 19 Dec 07:50:57 07:52:39 12° 90° (E) 07:54:21 437.485
PHONESAT 2.4 19 Dec 07:51:16 07:54:51 61° 195° (SSW) 07:58:27 2401.200-2431.200
CUTE 1.7 + AOD 2 19 Dec 07:51:30 07:53:56 15° 91° (E) 07:56:21 437.475
CUTE-I 19 Dec 07:52:25 07:55:49 18° 299° (WNW) 07:59:13 437.470
SO-50 19 Dec 07:56:56 07:57:54 11° 254° (WSW) 07:58:53 436.795
DOVE 4 19 Dec 07:58:49 08:00:35 12° 90° (E) 08:02:23 437.250
MaSat-1 19 Dec 08:10:39 08:11:19 11° 108° (ESE) 08:11:58 437.345
BRITE-PL 19 Dec 08:26:11 08:30:38 42° 99° (E) 08:35:24 437.365/2234.400
CINEMA 3 19 Dec 08:35:21 08:38:30 17° 92° (E) 08:41:42 145.822/145.860
ANTELSAT 19 Dec 08:41:34 08:44:21 17° 64° (ENE) 08:47:12 437.575/2403.000
QB50P2 19 Dec 08:44:27 08:45:37 11° 62° (ENE) 08:46:48 145.880/145.840
AAUSAT CUBESAT 2 19 Dec 08:47:15 08:51:15 38° 98° (E) 08:55:12 437.432
POLYITAN 1 19 Dec 08:51:43 08:53:46 13° 63° (ENE) 08:55:49 437.675
CANX-2 19 Dec 08:54:44 08:59:05 84° 102° (ESE) 09:03:23 2200.000
NANOSAT C BR1 19 Dec 08:55:10 08:57:26 14° 64° (ENE) 08:59:43 145.865
DANDE 19 Dec 08:56:32 08:58:50 17° 83° (E) 09:01:32 436.750
GOMX 1 19 Dec 09:01:03 09:05:45 70° 102° (ESE) 09:10:48 467.674
QB50P1 19 Dec 09:08:22 09:11:26 20° 67° (ENE) 09:14:30 145.935-145.965
HO-68 19 Dec 09:09:03 09:16:15 87° 106° (ESE) 09:23:24 435.675
UWE-3 19 Dec 09:11:01 09:14:29 21° 94° (E) 09:17:59 435.000/436.395/437.385
FUNcube-1 19 Dec 09:14:39 09:17:51 19° 93° (E) 09:21:04 145.935
O/OREOS (USA 219) 19 Dec 09:15:21 09:17:25 13° 52° (NE) 09:19:28 437.305
TIGRISAT 19 Dec 09:16:42 09:20:41 37° 70° (ENE) 09:24:47 435.000
COMPASS 1 19 Dec 09:21:14 09:25:30 74° 284° (WNW) 09:29:43 437.405
SEEDS 19 Dec 09:24:36 09:28:50 57° 286° (WNW) 09:33:01 437.485
VERMONT LUNAR 19 Dec 09:25:04 09:26:57 14° 213° (SSW) 09:28:50 437.305
CUTE 1.7 + AOD 2 19 Dec 09:25:57 09:30:06 47° 287° (WNW) 09:34:14 437.475
AISAT 19 Dec 09:26:46 09:28:51 13° 91° (E) 09:30:56 437.250
PHONESAT 2.4 19 Dec 09:30:31 09:33:09 19° 210° (SSW) 09:35:48 2401.200-2431.200
DX 1 19 Dec 09:31:18 09:35:28 43° 99° (E) 09:39:36 434.975-435.025
DOVE 4 19 Dec 09:34:00 09:38:43 73° 285° (WNW) 09:43:43 437.250
POPSAT HIP 1 19 Dec 09:35:50 09:39:45 39° 71° (ENE) 09:43:41 437.405
MaSat-1 19 Dec 09:43:06 09:44:33 15° 302° (WNW) 09:45:58 437.345
UNISAT 6 19 Dec 09:44:35 09:48:55 78° 75° (ENE) 09:53:23 437.425
YUBILEINY 19 Dec 09:47:02 09:54:20 29° 68° (ENE) 10:01:34 435.215
DELFI C3 19 Dec 09:47:29 09:51:38 79° 102° (ESE) 09:55:44 145.870
50 SAT 19 Dec 09:50:34 09:53:39 20° 94° (E) 09:56:43 437.505
CUSAT 1 19 Dec 09:53:54 09:57:19 67° 282° (WNW) 10:01:55 437.405
Oscar 11 19 Dec 09:56:34 10:00:56 71° 285° (WNW) 10:05:15 145.826/435.025
HUMSAT D 19 Dec 09:59:45 10:03:40 32° 97° (E) 10:07:34 437.325/437.525
UKube-1 19 Dec 10:04:01 10:08:22 82° 285° (WNW) 10:12:42 .
DUCHIFAT 1 19 Dec 10:04:21 10:08:33 84° 76° (ENE) 10:12:46 145.980
CUBEBUG 2 19 Dec 10:05:03 10:09:42 90° 269° (W) 10:14:26 437.445
BRITE-PL 19 Dec 10:05:29 10:08:55 21° 293° (WNW) 10:12:32 437.365/2234.400
BUGSAT 1 19 Dec 10:11:08 10:15:15 81° 76° (ENE) 10:19:20 437.445
CINEMA 3 19 Dec 10:11:21 10:15:54 50° 287° (WNW) 10:20:36 145.822/145.860
ANTELSAT 19 Dec 10:16:35 10:20:45 46° 261° (W) 10:25:04 437.575/2403.000
QB50P2 19 Dec 10:16:46 10:20:57 69° 258° (WSW) 10:25:11 145.880/145.840
ESTCUBE 1 19 Dec 10:16:50 10:19:58 18° 93° (E) 10:23:05 437.505/2401.250
VELOX 1 19 Dec 10:19:11 10:23:29 48° 100° (E) 10:27:45 145.980
ZACube-1 19 Dec 10:22:37 10:27:09 80° 284° (WNW) 10:31:44 437.345
AAUSAT CUBESAT 2 19 Dec 10:23:42 10:26:37 18° 294° (WNW) 10:29:31 437.432
POLYITAN 1 19 Dec 10:25:07 10:29:14 54° 260° (W) 10:33:24 437.675
NANOSAT C BR1 19 Dec 10:28:49 10:32:54 50° 260° (W) 10:37:00 145.865
DANDE 19 Dec 10:39:05 10:41:58 24° 293° (WNW) 10:45:34 436.750
GOMX 1 19 Dec 10:41:07 10:43:24 14° 296° (WNW) 10:45:45 467.674
QB50P1 19 Dec 10:43:15 10:47:05 34° 262° (W) 10:50:57 145.935-145.965
UWE-3 19 Dec 10:46:53 10:51:07 38° 289° (WNW) 10:55:25 435.000/436.395/437.385
FUNcube-1 19 Dec 10:50:06 10:54:20 41° 288° (WNW) 10:58:38 145.935
O/OREOS (USA 219) 19 Dec 10:52:50 10:57:21 73° 250° (WSW) 11:01:51 437.305
TIGRISAT 19 Dec 10:54:29 10:57:35 19° 267° (W) 11:00:44 435.000
TISAT 1 19 Dec 10:56:20 10:56:35 10° 90° (E) 10:56:50 437.305
HO-68 19 Dec 10:58:22 11:03:02 19° 305° (NW) 11:07:42 435.675
AISAT 19 Dec 11:01:28 11:05:49 56° 287° (WNW) 11:10:09 437.250
DX 1 19 Dec 11:08:30 11:11:22 17° 295° (WNW) 11:14:13 434.975-435.025
CUBEBUG 1 19 Dec 11:13:01 11:17:21 72° 102° (ESE) 11:21:40 437.445
POPSAT HIP 1 19 Dec 11:13:04 11:15:48 17° 267° (W) 11:18:34 437.405
RS-15 19 Dec 11:16:23 11:26:46 51° 111° (ESE) 11:37:07 29.354- 29.394
50 SAT 19 Dec 11:25:12 11:28:56 32° 289° (WNW) 11:32:38 437.505
HUMSAT D 19 Dec 11:35:56 11:39:17 22° 292° (WNW) 11:42:38 437.325/437.525
YUBILEINY 19 Dec 11:43:10 11:51:40 62° 268° (W) 12:00:10 435.215
CUBEBUG 2 19 Dec 11:45:36 11:45:41 10° 299° (WNW) 11:45:47 437.445
ESTCUBE 1 19 Dec 11:52:47 11:57:00 40° 289° (WNW) 12:01:12 437.505/2401.250
VELOX 1 19 Dec 11:56:55 11:59:40 16° 296° (WNW) 12:02:25 145.980
Oscar 19 19 Dec 12:22:17 12:27:20 61° 73° (ENE) 12:32:26 437.125/150
PCSat 19 Dec 12:22:43 12:24:01 11° 101° (ESE) 12:25:18 145.827
Gurwin Techsat 1B 19 Dec 12:23:46 12:26:48 16° 61° (ENE) 12:29:51 435.225
SPROUT 19 Dec 12:27:02 12:31:20 74° 285° (WNW) 12:35:37 437.525
TISAT 1 19 Dec 12:28:38 12:32:49 66° 285° (WNW) 12:37:00 437.305
SWISSCUBE 19 Dec 12:34:59 12:38:41 22° 94° (E) 12:42:21 437.505
ITUPSAT 1 19 Dec 12:35:00 12:38:30 20° 93° (E) 12:41:58 437.325
ITAMSAT 1 19 Dec 12:35:26 12:39:57 31° 67° (ENE) 12:44:28 435.822/435.867
BEESAT 3 19 Dec 12:37:41 12:40:49 21° 112° (ESE) 12:43:59 437.485
CUBEBUG 1 19 Dec 12:51:55 12:53:07 11° 298° (WNW) 12:54:20 437.445
BEESAT 19 Dec 12:59:46 13:04:11 36° 98° (E) 13:08:33 436.000
AUBIESAT-1 19 Dec 13:06:56 13:08:55 13° 94° (E) 13:10:49 437.475
AO-7 19 Dec 13:07:32 13:12:22 17° 48° (NE) 13:17:11 29.400- 29.500
ISS 19 Dec 13:08:44 13:11:22 22° 133° (SE) 13:14:00 145.825
BEESAT 2 19 Dec 13:15:14 13:19:12 49° 117° (ESE) 13:23:14 435.950
HORYU 2 19 Dec 13:19:29 13:22:22 17° 64° (ENE) 13:25:17 437.375
RS-15 19 Dec 13:28:42 13:39:09 49° 314° (NW) 13:49:46 29.354- 29.394
M-CUBED/EXP-1 PRIME 19 Dec 13:30:08 13:33:51 27° 99° (E) 13:37:18 437.505
Gurwin Techsat 1B 19 Dec 14:00:51 14:06:09 72° 258° (WSW) 14:11:28 435.225
PCSat 19 Dec 14:01:09 14:06:33 88° 118° (ESE) 14:12:01 145.827
Oscar 19 19 Dec 14:04:03 14:07:04 16° 269° (W) 14:10:07 437.125/150
ITUPSAT 1 19 Dec 14:12:04 14:16:33 42° 290° (WNW) 14:21:01 437.325
SWISSCUBE 19 Dec 14:12:15 14:16:39 38° 290° (WNW) 14:21:01 437.505
AIST 2 19 Dec 14:13:17 14:17:31 87° 302° (WNW) 14:21:50 435.215
ITAMSAT 1 19 Dec 14:14:47 14:19:22 32° 263° (W) 14:23:59 435.822/435.867
BEESAT 3 19 Dec 14:14:59 14:18:47 35° 309° (NW) 14:22:38 437.485
STARS 19 Dec 14:25:29 14:29:39 39° 98° (E) 14:33:49 437.465
KKS-1 19 Dec 14:26:00 14:30:26 61° 101° (E) 14:34:51 437.445
BEESAT 19 Dec 14:38:02 14:41:49 24° 294° (WNW) 14:45:35 436.000
AUBIESAT-1 19 Dec 14:40:01 14:44:19 53° 292° (WNW) 14:48:13 437.475
ISS 19 Dec 14:44:37 14:47:47 42° 330° (NNW) 14:50:57 145.825
JAS-2 19 Dec 14:47:32 14:53:14 24° 62° (ENE) 14:58:35 435.910
HORYU 2 19 Dec 14:54:22 14:58:39 47° 260° (W) 15:03:00 437.375
BEESAT 2 19 Dec 14:54:44 14:57:43 19° 315° (NW) 15:00:44 435.950
AO-7 19 Dec 14:55:27 15:03:42 72° 68° (ENE) 15:12:02 29.400- 29.500
M-CUBED/EXP-1 PRIME 19 Dec 15:05:03 15:08:48 27° 298° (WNW) 15:12:17 437.505
GONETS M04 19 Dec 15:41:32 15:49:20 34° 70° (ENE) 15:57:02
PCSat 19 Dec 15:47:17 15:50:43 17° 318° (NW) 15:54:09 145.827
RS-15 19 Dec 15:47:19 15:55:10 21° 346° (NNW) 16:03:09 29.354- 29.394
AIST 2 19 Dec 15:54:55 15:56:49 13° 321° (NW) 15:58:43 435.215
CUTE-I 19 Dec 15:56:07 15:58:42 14° 59° (ENE) 16:01:17 437.470
STARS 19 Dec 16:02:40 16:05:51 20° 294° (WNW) 16:09:02 437.465
KKS-1 19 Dec 16:04:20 16:06:34 14° 297° (WNW) 16:08:48 437.445
AIST 1 19 Dec 16:14:30 16:18:47 56° 94° (E) 16:23:05
ISS 19 Dec 16:23:06 16:25:02 15° 349° (N) 16:26:57 145.825
JAS-2 19 Dec 16:29:59 16:37:42 73° 258° (WSW) 16:44:49 435.910
AO-7 19 Dec 16:50:45 16:57:08 24° 267° (W) 17:03:37 29.400- 29.500
Cubesat XI-IV 19 Dec 16:59:18 17:04:26 51° 71° (ENE) 17:09:35 437.490
MOZHAYETS 4 19 Dec 17:02:32 17:07:12 89° 281° (W) 17:11:48
CUTE-I 19 Dec 17:32:44 17:38:03 82° 256° (WSW) 17:43:24 437.470
GONETS M04 19 Dec 17:38:03 17:46:26 52° 271° (W) 17:54:44
MaSat-1 19 Dec 17:40:28 17:42:07 16° 59° (ENE) 17:43:49 437.345
HO-68 19 Dec 17:54:42 17:57:31 13° 50° (NE) 18:00:20 435.675
AIST 1 19 Dec 17:54:56 17:56:50 13° 291° (WNW) 17:58:44
ISS 19 Dec 18:00:50 18:02:40 14° 10° (N) 18:04:29 145.825
STRAND 1 19 Dec 18:03:41 18:07:52 25° 95° (E) 18:12:01 437.568
RS-15 19 Dec 18:04:22 18:13:02 25° 23° (NNE) 18:21:55 29.354- 29.394
PRISM 19 Dec 18:13:53 18:18:03 79° 103° (ESE) 18:22:11 437.425
JAS-2 19 Dec 18:20:43 18:23:33 12° 273° (W) 18:26:19 435.910
CUBESAT XI-V 19 Dec 18:22:12 18:26:38 45° 99° (E) 18:31:01 437.345
Cubesat XI-IV 19 Dec 18:40:57 18:44:48 20° 267° (W) 18:48:39 437.490
CUTE 1.7 + AOD 2 19 Dec 18:46:03 18:47:20 11° 62° (ENE) 18:48:38 437.475
CUSAT 1 19 Dec 18:49:17 18:54:36 20° 65° (ENE) 19:00:18 437.405
MaSat-1 19 Dec 19:14:16 19:15:20 12° 252° (WSW) 19:16:26 437.345
DANDE 19 Dec 19:34:23 19:41:11 35° 72° (ENE) 19:48:49 436.750
HO-68 19 Dec 19:36:47 19:43:51 64° 69° (ENE) 19:50:57 435.675
ISS 19 Dec 19:36:52 19:39:57 37° 29° (NNE) 19:43:02 145.825
BRITE-PL 19 Dec 19:37:49 19:41:47 43° 73° (ENE) 19:45:43 437.365/2234.400
CINEMA 3 19 Dec 19:38:41 19:40:47 14° 63° (ENE) 19:42:54 145.822/145.860
AAUSAT CUBESAT 2 19 Dec 19:38:42 19:42:14 26° 69° (ENE) 19:45:46 437.432
STRAND 1 19 Dec 19:42:27 19:47:07 38° 291° (WNW) 19:51:47 437.568
CANX-2 19 Dec 19:47:30 19:51:41 57° 74° (ENE) 19:55:54 2200.000
